Вернуться в каталог

STARLINK-3682

АктивенСвязьVLEO
NORAD 52140·PAYLOAD·🇺🇸 United States

Запущен Mar 19, 2022 с Cape Canaveral Space Force Station

Loading…

Ближайшие Пролёты (ближайшие 24 часа)

TLE

СвежийSource: CelesTrak SupGP

Эпоха: Sep 15, 2026, 01:39 UTC

1 52140C 22029BE  26258.06923611  .00030027  00000+0  88725-3 0  2580
2 52140  53.1583 292.9512 0001041  97.0277   1.8258 15.34373152    16

Отслеживайте STARLINK-3682 в реальном времени с AllMySat

Download on the App Store